Flag for U.S.A. Weather past 2 weeks in Walnut Creek, California, U.S.A.

Now
52 °F

Passing clouds.


Feels Like: 50 °F
Forecast: 50 / 70 °F
Wind: 7 mph from Southwest

Location: Buchanan Field

Current Time: May 3, 2015 at 7:07:15 AM

Latest Report: May 3, 2015 at 5:53 AM


Visibility: 10 mi

Pressure: 29.80 "Hg

Humidity: 80%

Dew point: 46 °F

Location of Walnut CreekLocation

Historic Weather in Walnut Creek — Graph

°F

Walnut Creek temperature yesterday

Maximum temperature yesterday: 80 °F (at 1:53 PM)
Minimum temperature yesterday: 53 °F (at 4:53 AM)
Average temperature yesterday: 64 °F

Past Weeks' High & Low Weather Summary

 TemperatureHumidityPressure
High90 °F (Apr 30, 3:53 PM)90% (Apr 24, 11:53 PM)30.11 "Hg (Apr 24, 11:53 PM)
Low48 °F (Apr 18, 6:53 AM)12% (Apr 30, 4:53 PM)29.73 "Hg (Apr 30, 6:53 PM)
Average63 °F59%29.87 "Hg
* Reported Apr 18 4:53 AM — May 3 4:53 AM, Walnut Creek, Weather by CustomWeather, © 2015

Note: Actual official high and low records may vary slightly from our data, if they occured in-between our weather recording intervals... More about our weather records

Advertising

Walnut Creek weather history for previous 24 hours

 ConditionsComfort  
Time TempWeatherWind HumidityBarometerVisibility
4:53 AM
Sun, May 3
52 °FPassing clouds.5 mph80%29.80 "Hg10 mi
3:53 AM52 °FClear.7 mph80%29.80 "Hg10 mi
2:53 AM52 °FClear.7 mph80%29.81 "Hg10 mi
1:53 AM53 °FClear.6 mph77%29.82 "Hg10 mi
12:53 AM53 °FClear.9 mph77%29.82 "Hg10 mi
11:53 PM
Sat, May 2
54 °FClear.7 mph74%29.83 "Hg10 mi
10:53 PM54 °FClear.5 mph72%29.82 "Hg10 mi
9:53 PM57 °FClear.7 mph60%29.81 "Hg10 mi
8:53 PM59 °FSunny.8 mph54%29.79 "Hg10 mi
7:53 PM63 °FSunny.12 mph43%29.76 "Hg10 mi
6:53 PM68 °FSunny.14 mph36%29.75 "Hg10 mi
5:53 PM76 °FSunny.12 mph24%29.75 "Hg10 mi
4:53 PM77 °FSunny.9 mph32%29.76 "Hg10 mi
3:53 PM79 °FSunny.13 mph32%29.76 "Hg10 mi
2:53 PM80 °FSunny.12 mph29%29.77 "Hg10 mi
1:53 PM80 °FSunny.13 mph26%29.78 "Hg10 mi
12:53 PM77 °FSunny.14 mph36%29.80 "Hg10 mi
11:53 AM73 °FSunny.12 mph43%29.82 "Hg10 mi
10:53 AM68 °FSunny.6 mph51%29.83 "Hg10 mi
9:53 AM63 °FSunny.8 mph58%29.83 "Hg10 mi
8:53 AM60 °FSunny.9 mph65%29.83 "Hg10 mi
7:53 AM57 °FPassing clouds.9 mph72%29.84 "Hg9 mi
Weather by CustomWeather, © 2015

See weather overviewHow to use our weather pages